iso_date,epoch_date,Year,Hour,Min,DOY,POS_DOY,Lat,Lon,BP,Ts,Ta,has_bp,has_ts,has_ta,BuoyID,Buoy_Type,Buoy_Owner,Logistics,Hemisphere
2012-09-12T12:04:19Z,1347451459,2012,12,8,256.503,256.503,51.221,4.391,-999.00,-0.97,-999.0,no,yes,no,118395,unknown,unknown,unknown,North
2012-09-12T13:29:16Z,1347456557,2012,13,36,256.562,256.562,51.22,4.395,-999.00,-0.97,-999.0,no,yes,no,118395,unknown,unknown,unknown,North
2012-09-12T14:34:04Z,1347460445,2012,14,48,256.607,256.607,51.219,4.394,-999.00,-0.97,-999.0,no,yes,no,118395,unknown,unknown,unknown,North
2012-09-12T16:19:12Z,1347466752,2012,16,20,256.68,256.68,51.214,4.39,-999.00,-0.97,-999.0,no,yes,no,118395,unknown,unknown,unknown,North
2012-09-12T16:32:09Z,1347467530,2012,18,15,256.689,256.689,51.22,4.395,-999.00,-0.97,-999.0,no,yes,no,118395,unknown,unknown,unknown,North
2012-09-12T18:18:43Z,1347473923,2012,19,6,256.763,256.763,51.22,4.393,-999.00,-0.97,-999.0,no,yes,no,118395,unknown,unknown,unknown,North
2012-09-12T20:06:43Z,1347480403,2012,20,17,256.838,256.838,51.221,4.393,-999.00,-0.97,-999.0,no,yes,no,118395,unknown,unknown,unknown,North
2012-09-12T21:46:04Z,1347486365,2012,21,57,256.907,256.907,51.218,4.393,-999.00,-0.97,-999.0,no,yes,no,118395,unknown,unknown,unknown,North
2012-09-13T01:49:26Z,1347500966,2012,2,58,257.076,257.076,51.219,4.396,-999.00,-0.97,-999.0,no,yes,no,118395,unknown,unknown,unknown,North
2012-09-13T04:33:36Z,1347510816,2012,4,40,257.19,257.19,51.217,4.397,-999.00,-0.97,-999.0,no,yes,no,118395,unknown,unknown,unknown,North
2012-09-13T04:45:07Z,1347511507,2012,6,16,257.198,257.198,51.22,4.394,-999.00,-0.97,-999.0,no,yes,no,118395,unknown,unknown,unknown,North
2012-09-13T08:12:28Z,1347523949,2012,8,15,257.342,257.342,51.219,4.395,-999.00,-0.97,-999.0,no,yes,no,118395,unknown,unknown,unknown,North
2012-09-13T09:07:12Z,1347527232,2012,9,52,257.38,257.38,51.221,4.396,-999.00,-0.97,-999.0,no,yes,no,118395,unknown,unknown,unknown,North
2012-09-13T10:06:14Z,1347530774,2012,10,50,257.421,257.421,51.221,4.391,-999.00,-0.97,-999.0,no,yes,no,118395,unknown,unknown,unknown,North
2012-09-13T11:45:36Z,1347536736,2012,11,48,257.49,257.49,51.22,4.393,-999.00,-0.97,-999.0,no,yes,no,118395,unknown,unknown,unknown,North
2012-09-13T13:20:38Z,1347542438,2012,13,25,257.556,257.556,51.22,4.395,-999.00,-0.97,-999.0,no,yes,no,118395,unknown,unknown,unknown,North
2012-09-13T14:22:33Z,1347546154,2012,15,5,257.599,257.599,51.22,4.396,-999.00,-0.97,-999.0,no,yes,no,118395,unknown,unknown,unknown,North
2012-09-13T16:06:14Z,1347552374,2012,16,9,257.671,257.671,51.211,4.394,-999.00,-0.97,-999.0,no,yes,no,118395,unknown,unknown,unknown,North
2012-09-13T17:57:07Z,1347559027,2012,18,2,257.748,257.748,51.22,4.396,-999.00,-0.97,-999.0,no,yes,no,118395,unknown,unknown,unknown,North
2012-09-13T19:36:28Z,1347564989,2012,19,38,257.817,257.817,51.22,4.395,-999.00,-0.97,-999.0,no,yes,no,118395,unknown,unknown,unknown,North
2012-09-13T20:34:04Z,1347568445,2012,20,37,257.857,257.857,51.219,4.396,-999.00,-0.97,-999.0,no,yes,no,118395,unknown,unknown,unknown,North
2012-09-13T21:25:55Z,1347571555,2012,23,12,257.893,257.893,51.219,4.396,-999.00,-0.97,-999.0,no,yes,no,118395,unknown,unknown,unknown,North
2012-09-14T01:36:28Z,1347586589,2012,2,45,258.067,258.067,51.219,4.398,-999.00,-0.97,-999.0,no,yes,no,118395,unknown,unknown,unknown,North
2012-09-14T03:20:09Z,1347592810,2012,4,23,258.139,258.139,51.219,4.397,-999.00,-0.97,-999.0,no,yes,no,118395,unknown,unknown,unknown,North
2012-09-14T04:22:04Z,1347596525,2012,6,4,258.182,258.182,51.22,4.395,-999.00,-0.97,-999.0,no,yes,no,118395,unknown,unknown,unknown,North
2012-09-14T06:00:00Z,1347602400,2012,7,5,258.25,258.25,51.218,4.395,-999.00,-0.97,-999.0,no,yes,no,118395,unknown,unknown,unknown,North
2012-09-14T07:50:52Z,1347609053,2012,8,55,258.327,258.327,51.22,4.392,-999.00,-0.97,-999.0,no,yes,no,118395,unknown,unknown,unknown,North
2012-09-14T09:46:04Z,1347615965,2012,9,49,258.407,258.407,51.218,4.402,-999.00,-0.97,-999.0,no,yes,no,118395,unknown,unknown,unknown,North
2012-09-14T11:25:26Z,1347621926,2012,11,25,258.476,258.476,51.212,4.398,-999.00,-0.97,-999.0,no,yes,no,118395,unknown,unknown,unknown,North
2012-09-14T13:07:40Z,1347628061,2012,13,18,258.547,258.547,51.219,4.395,-999.00,-0.97,-999.0,no,yes,no,118395,unknown,unknown,unknown,North
2012-09-14T15:54:43Z,1347638083,2012,15,59,258.663,258.663,51.22,4.394,-999.00,-0.97,-999.0,no,yes,no,118395,unknown,unknown,unknown,North
2012-09-14T17:21:07Z,1347643267,2012,17,36,258.723,258.723,51.222,4.394,-999.00,-0.97,-999.0,no,yes,no,118395,unknown,unknown,unknown,North
2012-09-14T19:13:26Z,1347650006,2012,19,19,258.801,258.801,51.221,4.395,-999.00,-0.97,-999.0,no,yes,no,118395,unknown,unknown,unknown,North
2012-09-14T20:22:33Z,1347654154,2012,20,24,258.849,258.849,51.22,4.395,-999.00,-0.97,-999.0,no,yes,no,118395,unknown,unknown,unknown,North
2012-09-14T21:05:45Z,1347656746,2012,21,12,258.879,258.879,51.221,4.395,-999.00,-0.97,-999.0,no,yes,no,118395,unknown,unknown,unknown,North
2012-09-14T22:48:00Z,1347662880,2012,22,53,258.95,258.95,51.217,4.392,-999.00,-0.97,-999.0,no,yes,no,118395,unknown,unknown,unknown,North
2012-09-15T02:35:31Z,1347676531,2012,2,37,259.108,259.108,51.22,4.395,-999.00,-0.97,-999.0,no,yes,no,118395,unknown,unknown,unknown,North
2012-09-15T03:08:38Z,1347678518,2012,3,56,259.131,259.131,51.221,4.393,-999.00,-0.97,-999.0,no,yes,no,118395,unknown,unknown,unknown,North
2012-09-15T04:10:33Z,1347682234,2012,4,50,259.174,259.174,51.219,4.395,-999.00,-0.97,-999.0,no,yes,no,118395,unknown,unknown,unknown,North
2012-09-15T05:35:31Z,1347687331,2012,5,51,259.233,259.233,51.219,4.397,-999.00,-0.97,-999.0,no,yes,no,118395,unknown,unknown,unknown,North
2012-09-15T07:13:26Z,1347693206,2012,7,25,259.301,259.301,51.22,4.394,-999.00,-0.97,-999.0,no,yes,no,118395,unknown,unknown,unknown,North
2012-09-15T09:05:45Z,1347699946,2012,9,8,259.379,259.379,51.22,4.395,-999.00,-0.97,-999.0,no,yes,no,118395,unknown,unknown,unknown,North
2012-09-15T10:19:12Z,1347704352,2012,10,24,259.43,259.43,51.219,4.397,-999.00,-0.97,-999.0,no,yes,no,118395,unknown,unknown,unknown,North
2012-09-15T11:03:50Z,1347707030,2012,11,19,259.461,259.461,51.219,4.394,-999.00,-0.97,-999.0,no,yes,no,118395,unknown,unknown,unknown,North
2012-09-15T12:57:36Z,1347713856,2012,13,6,259.54,259.54,51.219,4.394,-999.00,-0.97,-999.0,no,yes,no,118395,unknown,unknown,unknown,North
2012-09-15T14:42:43Z,1347720163,2012,15,18,259.613,259.613,51.215,4.394,-999.00,-0.97,-999.0,no,yes,no,118395,unknown,unknown,unknown,North
2012-09-15T16:56:38Z,1347728198,2012,17,1,259.706,259.706,51.219,4.395,-999.00,-0.97,-999.0,no,yes,no,118395,unknown,unknown,unknown,North
2012-09-15T18:47:31Z,1347734851,2012,20,18,259.783,259.783,51.289,4.355,-999.00,-0.97,-999.0,no,yes,no,118395,unknown,unknown,unknown,North
2012-09-15T20:44:09Z,1347741850,2012,8,25,259.864,259.864,51.39,3.851,-999.00,-1.05,-999.0,no,yes,no,118395,unknown,unknown,unknown,North
2012-09-16T08:34:04Z,1347784445,2012,8,41,260.357,260.357,50.447,-0.326,-999.00,-1.05,-999.0,no,yes,no,118395,unknown,unknown,unknown,North
2012-09-16T09:01:26Z,1347786086,2012,12,54,260.376,260.376,50.453,-0.457,-999.00,-1.05,-999.0,no,yes,no,118395,unknown,unknown,unknown,North
2012-09-16T09:01:26Z,1347786086,2012,16,41,260.376,260.376,50.453,-0.457,-999.00,-1.05,-999.0,no,yes,no,118395,unknown,unknown,unknown,North
